Reflectivity
-20 -20 -20 -20 -20 -20 -20 -20 -20 -20 -20 -20 -20 -20 -20 -20 -20 4 12 -8 -11 -20 13 17 35 -14 -20 -14 19 -2 -20 7 -1 18 23 -12 -20 -20 -18 -18 -1 -20 -20
-20 -20 -20 -20 -20 -20 -20 -20 -20 -20 -20 -20 -20 -3 -20 -19 6 7 -0 1 1 -19 -20 -3 -6 31 32 5 8 2 32 26 -2 -20 -20 -20 -20 -20 -20 -20 -8 -20 -19
-20 -20 -20 -20 -20 -20 -20 -20 -20 -20 -20 -20 -20 -20 -20 -8 -20 2 14 -20 -13 -5 -20 -18 -16 -5 -9 36 20 29 6 -15 -4 4 -17 -20 -20 -20 -20 0 -15 -20 -17
-20 -20 -20 -20 -20 -20 -20 -20 -20 -20 -20 -20 -20 -20 -20 -20 -20 1 4 14 16 -16 -20 3 2 -11 -20 29 4 3 -3 -7 -5 5 -4 8 -1 -19 -20 -20 -10 -14 -2
-20 -20 -20 -20 -20 -20 -20 -20 -20 -20 -20 -20 -20 -20 -20 -20 -20 -20 -20 -4 14 1 2 -20 -20 8 33 -20 -16 -19 22 3 8 -1 -2 3 7 -3 -20 -20 -16 -20 -18
-20 -20 -20 -20 -20 -20 -20 -20 -20 -20 -20 -20 -20 -20 -20 -20 -20 -20 -20 -20 -20 1 -19 -20 -20 -20 12 -19 -20 -20 -20 4 8 -7 -20 -18 -10 -3 -20 -20 -20 -20 -6
-20 -20 -20 -20 -20 -20 -18 -2 -20 -20 -20 -20 -16 -15 -20 -20 -20 -20 -20 -20 -20 -20 -10 -19 -20 -20 -20 -20 23 -20 -16 8 -20 2 11 6 -2 6 8 -1 -8 2 -15
-20 -20 -20 -20 -9 -8 -20 -20 -19 -20 -20 -20 -20 -20 -20 2 -20 -20 -20 -20 -20 -20 -20 -20 -9 -14 -20 13 -5 -20 2 -12 -5 2 7 -11 7 11 16 18 -10 6 -12
-20 -1 2 -6 1 -3 -20 -20 -17 -9 -6 -18 -20 -20 -20 -20 -1 -20 -20 -20 -20 -20 -20 -20 -20 -20 -20 2 7 -20 -20 -20 -20 6 -16 -18 -20 -20 -18 12 1 2 -9
-3 -7 -20 -20 -20 -20 -20 -20 -20 -20 -20 -20 -20 -20 6 -2 15 4 -19 -4 -20 -20 -20 -20 5 -18 -20 6 25 -9 -20 -20 -20 -20 -20 -20 -20 -20 -17 -14 1 0 -6
-20 -20 -11 -20 -20 -20 -20 -1 -2 -4 -1 -5 -3 -0 -1 -5 1 -20 -9 -19 -10 -20 -20 29 -17 9 11 19 8 -20 -20 -13 -20 -20 -20 -20 -20 -20 -20 4 11 9 7
-19 -1 -4 -20 -20 -20 -20 -1 2 -20 -20 -20 -20 -12 -3 -3 -18 -20 -20 11 7 -18 -4 4 3 0 10 -10 -7 -1 10 -0 -20 -20 -20 -20 -20 -20 -20 1 12 19 5
-20 -6 -20 -20 -20 -20 -20 2 -20 -20 -20 -20 -20 -11 -20 -20 -19 -7 -20 -18 1 -18 -17 -7 -8 24 -2 -17 4 3 -7 -20 -16 -20 -20 -20 -20 -7 -4 -18 -9 8 18
-20 -20 -20 -20 -20 -20 -20 -4 -20 -20 -20 -20 -20 -18 -15 -20 -20 -20 -20 -20 -19 -20 -20 -20 -20 -20 -20 -20 -20 -20 -20 -8 2 2 1 14 -8 -20 -20 -20 -13 -20 -19
-20 -20 -20 -20 -20 -20 -20 -4 -20 -20 -20 -20 -20 -20 -5 -20 -20 -20 -1 -20 -20 -20 -7 9 7 -8 -5 -5 -14 -20 -20 -16 -20 -13 1 7 -1 -10 -18 -15 -1 -20 -20
-20 -20 -20 -20 -20 -20 -20 -20 1 -15 -19 -20 -20 -20 -20 -17 -20 -20 -20 -20 -6 6 -12 -15 -20 -20 -10 -11 -8 -13 -15 -18 -15 -2 -2 -10 -20 -20 -20 -20 -5 -13 4
-20 -20 -20 -20 -20 -20 -20 -20 -20 -20 -20 -20 -20 -20 -20 -20 -20 -20 -20 2 -3 0 -20 -20 -20 -17 -6 -1 -4 -4 -12 -20 -20 -20 -19 -20 -20 -20 -20 -20 -7 -1 -2
-20 -20 -20 -20 -20 -20 -20 -20 -20 -20 -20 -20 -20 -20 -20 -20 -20 -20 -20 -20 -20 -20 -16 -1 -1 -0 -2 -2 -16 -20 -20 -20 -20 -20 -20 -20 -20 -20 -20 -12 -19 -1 -3
-20 -20 -20 -20 -20 -20 -20 -20 -20 -20 -20 -20 -20 -20 -20 -20 -20 -20 -20 -20 -20 -20 -20 -20 -15 -10 -15 -17 -20 -18 -20 -20 -20 -20 -20 -20 -18 -20 -20 -20 -20 -20 -15
-20 -20 -20 -20 -20 -20 -20 -20 -20 -20 -20 -20 -20 -20 -20 -20 -20 -20 -20 -20 -20 -20 -20 -20 -20 -20 -20 -20 -20 -20 -20 -20 -20 -20 -20 -20 -20 -20 -5 -4 -6 -2 -20
-20 -20 -20 -20 -20 -20 -20 -20 -20 -20 -20 -20 -20 -20 -20 -20 -20 -20 -20 -20 -20 -20 -20 -20 -20 -20 -20 -20 -20 -20 -20 -20 -20 -20 -20 -20 -20 -19 -18 -9 -5 -1 -4
-20 -20 -20 -20 -20 -20 -20 -20 -20 -20 -20 -20 -20 -20 -20 -20 -20 -20 -20 -20 -20 -20 -20 -20 -20 -20 -20 -20 -20 -20 -20 -20 -20 -17 -20 -18 -17 -6 -3 -8 -19 -20 -20
-20 -20 -20 -20 -20 -20 -20 -20 -20 -20 -20 -20 -20 -20 -20 -20 -20 -20 -20 -20 -20 -20 -20 -20 -20 -20 -20 -20 -20 -20 -20 -20 -20 -20 -20 -20 -20 -14 -13 -20 -20 -20 -20
-20 -20 -20 -20 -20 -20 -20 -20 -20 -20 -20 -20 -20 -20 -20 -20 -20 -20 -20 -20 -20 -20 -20 -20 -20 -20 -20 -20 -20 -20 -20 -20 -20 -20 -17 -20 -20 -7 -1 -18 -20 -20 -20
-20 -20 -20 -20 -20 -20 -20 -20 -20 -20 -20 -20 -20 -20 -20 -20 -20 -20 -20 -20 -20 -20 -20 -20 -20 -20 -20 -20 -20 -20 -20 -20 -11 -20 -20 -20 -20 -19 -10 -20 -20 -20 -20
-19 -20 -20 -20 -20 -20 -20 -20 -20 -20 -20 -20 -20 -20 -20 -20 -20 -20 -20 -20 -20 -20 -20 -20 -20 -20 -20 -20 -20 -11 -20 -20 -20 -20 -20 -20 -12 6 7 -7 -20 -16 -11
Wind_Speed
9 9 9 9 9 7 6 7 8 9 9 9 10 10 9 9 9 8 9 12 13 11 12 11 11 11 8 7 6 7 7 7 11 8 7 8 9 7 7 6 8 7 7
8 7 7 7 7 7 7 7 8 9 9 8 8 9 9 9 8 8 9 9 12 12 12 9 11 7 10 9 7 10 9 9 9 13 9 8 10 9 9 7 8 7 8
6 6 5 6 6 6 7 8 8 9 9 9 9 9 10 10 10 9 8 8 9 10 10 10 10 8 6 7 6 8 8 8 8 9 10 8 8 6 5 6 7 6 5
5 5 5 6 7 7 7 7 8 8 9 9 9 10 10 10 11 10 10 9 9 8 8 10 9 9 9 9 7 8 9 8 7 6 7 9 9 7 6 4 7 4 5
4 5 6 7 7 8 9 9 9 8 8 9 10 10 10 9 8 8 10 10 10 10 10 8 8 8 8 8 7 8 8 7 5 5 6 7 9 8 9 6 7 8 8
3 4 5 6 7 7 7 8 8 8 9 10 10 10 11 8 10 13 12 9 10 10 9 9 8 9 10 12 11 12 11 10 9 7 7 8 11 9 8 7 8 8 9
2 4 5 5 6 7 8 8 8 9 10 10 10 11 11 12 10 12 15 10 9 11 10 9 8 6 7 9 10 9 11 13 13 10 12 12 13 10 9 9 9 8 9
4 5 5 6 6 8 8 9 8 8 9 8 9 10 11 10 11 12 16 12 9 11 12 12 11 11 10 9 7 5 7 7 7 7 10 11 12 10 11 11 9 10 8
3 5 4 5 6 6 7 8 8 8 8 7 8 9 9 9 11 13 12 10 10 12 11 12 12 12 11 4 8 5 5 6 3 5 7 9 11 12 10 5 6 6 6
5 6 5 5 5 6 7 7 7 7 7 7 8 8 10 9 8 12 12 8 10 9 9 10 10 12 3 5 5 5 6 5 5 7 8 8 8 9 10 9 5 7 5
5 6 6 6 6 6 7 6 7 8 8 8 8 8 8 10 9 12 13 7 7 9 7 7 3 4 2 3 3 5 5 6 5 7 7 7 6 6 6 5 8 8 6
4 4 4 5 4 4 6 6 7 8 8 8 8 8 7 8 9 13 14 12 12 5 5 5 4 8 6 3 4 6 6 6 5 6 7 7 6 6 6 8 8 9 9
4 4 5 5 5 4 6 6 5 6 6 7 7 7 8 8 9 16 16 15 11 7 4 6 9 8 2 5 4 3 3 3 4 5 6 6 5 7 10 10 10 11 12
4 5 5 5 6 5 5 4 3 4 5 6 7 8 8 8 9 10 10 9 11 7 7 4 5 2 2 4 5 6 6 6 5 6 7 7 7 7 8 7 9 10 10
4 4 5 4 6 6 4 4 2 2 5 7 7 7 7 8 11 13 9 8 7 6 8 3 6 7 7 8 7 8 7 7 7 7 8 7 7 8 9 9 9 9 9
3 2 3 4 4 4 5 4 7 6 3 3 5 5 6 5 12 13 12 12 13 11 5 6 7 7 7 7 7 7 6 8 7 7 5 6 7 8 9 9 8 9 11
2 3 3 3 4 5 5 5 5 3 8 4 5 5 6 7 10 12 11 8 14 8 7 6 6 6 6 6 5 6 6 7 8 6 7 7 8 9 10 9 9 8 10
1 1 3 4 4 4 5 5 4 4 5 4 4 4 7 7 8 12 13 3 6 8 6 6 6 5 5 5 6 6 6 7 7 8 8 8 8 8 9 10 9 10 10
4 2 2 3 3 4 4 3 3 4 4 4 4 2 5 6 3 5 8 7 6 6 6 5 6 6 6 6 6 7 8 7 8 8 8 8 8 8 10 10 11 13 13
5 6 5 3 2 2 2 2 2 3 4 4 4 5 6 5 6 6 6 5 5 5 5 5 5 5 6 6 6 6 7 7 7 7 8 9 9 8 10 11 11 11 12
5 5 5 5 4 3 3 2 2 3 4 4 4 4 4 6 5 5 5 4 4 4 5 5 5 5 5 6 6 6 6 7 7 8 9 9 10 11 11 11 12 12 11
6 6 6 6 5 5 4 4 4 4 4 4 3 2 2 5 4 4 4 4 4 4 4 5 5 5 5 6 7 7 7 8 8 9 10 11 11 12 12 13 13 11 11
7 7 7 6 6 5 6 6 5 5 5 5 4 4 4 4 4 4 4 4 4 4 4 5 5 6 6 6 6 6 7 8 9 9 11 12 12 12 13 14 14 11 11
8 8 8 7 6 7 7 7 6 6 6 6 6 5 5 5 5 5 5 4 5 5 5 6 6 8 8 8 7 7 7 8 10 11 15 12 13 15 14 14 13 15 13
9 9 8 8 7 7 7 7 7 7 6 7 7 7 7 6 6 6 5 5 5 5 6 6 6 8 9 11 10 10 10 11 12 11 10 14 16 19 16 13 14 13 16
9 10 9 8 7 8 8 8 7 7 7 7 7 7 7 7 7 7 6 7 6 6 7 6 8 10 12 9 9 10 11 13 13 12 10 11 11 12 12 15 18 13 16
Wind_Direction
44 37 31 26 30 27 15 2 352 344 343 332 326 321 313 312 317 297 261 259 259 261 263 249 247 235 238 242 240 244 232 234 259 260 259 270 270 255 244 232 242 245 231
31 35 38 27 16 15 8 357 345 339 334 334 330 317 314 316 316 299 288 281 265 264 270 268 261 256 245 245 232 245 246 241 248 265 264 265 260 269 263 255 255 251 252
14 8 17 14 4 356 347 341 338 335 329 325 326 326 323 323 316 309 297 289 286 281 280 282 275 274 250 255 231 249 254 256 249 260 269 268 266 263 241 244 240 235 252
357 1 6 0 349 344 338 332 327 324 318 318 317 314 314 315 313 311 324 309 289 273 283 281 276 275 261 268 242 241 247 243 233 228 254 265 258 256 253 242 252 203 228
359 1 357 348 347 344 343 337 329 326 319 310 308 308 307 300 289 334 319 308 298 299 284 274 281 287 293 276 265 255 264 255 232 228 245 258 271 263 259 264 259 268 240
9 6 347 334 333 334 335 335 330 329 327 320 318 314 309 300 335 314 309 304 300 292 284 280 275 259 250 241 235 242 262 265 254 239 248 251 255 253 258 268 266 264 270
345 336 337 335 331 339 339 337 336 332 327 326 322 320 311 306 311 305 303 295 295 289 279 272 269 260 254 259 246 228 233 234 242 264 261 258 272 263 257 260 267 267 266
2 347 342 337 339 344 346 341 331 328 323 323 318 315 309 310 318 303 304 289 277 275 276 274 273 272 260 246 252 257 275 275 252 241 248 263 264 269 258 262 260 266 274
345 340 334 337 348 345 338 336 335 332 325 319 297 301 301 311 304 303 303 290 272 269 273 271 263 263 264 194 243 253 276 275 217 249 294 298 291 279 259 265 237 239 259
338 332 341 348 345 337 331 317 312 316 308 321 318 310 298 311 327 355 345 289 274 277 280 271 245 256 56 191 253 255 267 286 294 314 307 298 286 285 232 232 244 238 227
333 332 338 348 337 331 319 323 327 335 338 345 344 353 14 1 8 360 355 332 308 294 292 299 24 42 155 213 265 275 303 339 297 286 289 293 301 298 298 271 242 235 233
311 317 332 346 345 332 322 339 6 9 9 9 0 5 8 357 353 352 344 346 328 300 313 348 34 360 319 304 286 353 302 283 287 293 303 304 316 315 323 316 293 253 243
308 355 359 355 355 351 353 8 11 9 0 359 1 357 356 354 350 349 339 342 348 330 357 331 311 304 302 202 64 6 281 323 307 305 301 297 312 324 313 301 300 297 275
328 352 360 358 350 359 3 25 33 20 1 7 1 353 346 349 1 349 338 343 357 347 344 336 335 324 70 19 3 22 19 13 349 329 325 324 309 310 308 304 309 311 301
335 342 341 350 2 349 0 3 132 74 24 9 5 345 346 349 353 326 319 343 338 325 316 13 51 44 42 35 29 24 21 16 13 354 350 351 343 326 321 326 313 304 295
310 334 12 347 2 0 356 1 125 132 85 53 28 2 351 7 333 334 336 349 357 360 54 37 36 35 35 25 17 8 5 359 359 346 345 338 333 324 320 323 321 316 309
340 1 354 335 357 7 360 354 344 184 219 273 21 3 4 344 349 349 349 354 21 20 46 52 47 39 29 23 13 1 352 348 336 339 336 336 329 320 316 315 312 310 306
336 182 350 3 0 359 355 346 327 339 339 355 114 6 6 350 0 1 349 318 39 42 32 28 24 20 20 8 358 350 343 343 341 335 331 332 328 320 314 310 310 304 303
257 291 338 357 357 344 343 335 343 350 347 347 343 10 26 340 317 58 360 40 22 31 24 15 8 7 360 357 350 341 337 346 337 336 330 325 321 316 309 308 306 301 298
241 242 268 288 312 303 327 336 356 1 358 360 355 1 355 328 13 15 28 29 35 20 14 11 9 5 3 354 352 353 335 339 339 330 325 318 310 310 301 301 300 300 297
251 250 244 257 249 251 262 280 310 327 350 359 1 31 341 316 356 358 352 6 6 358 351 350 348 350 345 341 341 344 332 322 323 319 315 311 307 303 300 297 296 291 284
249 251 251 255 252 233 243 254 268 287 303 325 346 0 276 297 329 342 341 344 347 334 330 327 327 332 331 327 326 330 330 324 321 318 313 307 302 300 298 296 294 290 282
244 247 248 253 250 239 235 244 251 262 276 286 293 302 306 307 307 310 318 327 325 321 325 314 317 323 333 327 322 322 319 320 311 305 299 297 298 296 296 293 291 287 279
238 243 246 256 249 241 243 251 252 244 270 275 273 272 274 281 286 295 292 303 306 308 311 315 318 320 323 319 320 316 315 329 321 302 300 298 293 294 293 291 290 285 280
233 237 238 245 252 245 245 247 257 261 262 265 267 259 256 263 273 276 282 283 286 299 313 314 309 315 310 314 306 313 340 309 292 300 293 301 293 296 290 288 286 280 281
219 230 237 238 240 242 246 251 256 257 257 264 266 262 262 262 266 271 273 273 280 293 300 303 308 306 308 306 308 329 297 287 307 306 298 286 282 284 285 288 289 284 283